When you browse on this site, cookies collect data to enhance your experience and personalize the content and advertising you see.
Visit our Privacy Policy to learn more. By continuing to use the site, you agree to this use of cookies and data.
  • In Schweiz
  • Länderverzeichnis
  • Für 7 Tage
  • Wassertemperatur
  • Satellitenkarten
  • Wetterkarte
  • Widgets
  • user-avatar
    Anmelden

    Stündliche Wetter Aylesbury

    Heute, 14 Dezember, Freitag

    Zeit Temperatur Niederschläge Wind Luftdruck Luftfeuchtigkeit
    00:00 -1°C° 0 mm 2 m/S 757 mmHg 84%
    01:00 -1°C° 0 mm 2 m/S 758 mmHg 84%
    02:00 -1°C° 0 mm 2 m/S 758 mmHg 84%
    03:00 -1°C° 0 mm 2 m/S 758 mmHg 83%
    04:00 -1°C° 0 mm 2 m/S 758 mmHg 83%
    05:00 -1°C° 0 mm 2 m/S 758 mmHg 83%
    06:00 -1°C° 0 mm 2 m/S 758 mmHg 83%
    07:00 -1°C° 0 mm 2 m/S 758 mmHg 83%
    08:00 -1°C° 0 mm 2 m/S 758 mmHg 83%
    09:00 -1°C° 0 mm 2 m/S 758 mmHg 83%
    10:00 +1°C° 0 mm 2 m/S 758 mmHg 78%
    11:00 +2°C° 0 mm 2 m/S 759 mmHg 73%
    12:00 +3°C° 0 mm 3 m/S 759 mmHg 68%
    13:00 +3°C° 0 mm 2 m/S 759 mmHg 70%
    14:00 +3°C° 0 mm 2 m/S 759 mmHg 72%
    15:00 +3°C° 0 mm 2 m/S 759 mmHg 74%
    16:00 +2°C° 0 mm 2 m/S 759 mmHg 77%
    17:00 +1°C° 0 mm 2 m/S 759 mmHg 79%
    18:00 -1°C° 0 mm 2 m/S 759 mmHg 82%
    19:00 -1°C° 0 mm 2 m/S 759 mmHg 82%
    20:00 -1°C° 0 mm 3 m/S 759 mmHg 81%
    21:00 -1°C° 0 mm 3 m/S 759 mmHg 80%
    22:00 -1°C° 0 mm 3 m/S 758 mmHg 80%
    23:00 -2°C° 0 mm 4 m/S 758 mmHg 79%

    Morgen, 15 Dezember, Samstag

    Zeit Temperatur Niederschläge Wind Luftdruck Luftfeuchtigkeit
    00:00 -2°C° 0 mm 4 m/S 758 mmHg 78%
    01:00 -1°C° 0 mm 5 m/S 757 mmHg 78%
    02:00 -1°C° 0 mm 5 m/S 757 mmHg 78%
    03:00 -1°C° 0 mm 5 m/S 756 mmHg 78%
    04:00 -2°C° 0.1 mm 6 m/S 755 mmHg 77%
    05:00 -1°C° 0.1 mm 6 m/S 755 mmHg 76%
    06:00 -1°C° 0.1 mm 6 m/S 754 mmHg 75%
    07:00 -1°C° 0.1 mm 7 m/S 753 mmHg 73%
    08:00 -1°C° 0.1 mm 8 m/S 753 mmHg 72%
    09:00 0°C° 0.1 mm 8 m/S 752 mmHg 70%
    10:00 0°C° 0.3 mm 9 m/S 751 mmHg 72%
    11:00 0°C° 0.3 mm 9 m/S 750 mmHg 73%
    12:00 0°C° 0.3 mm 9 m/S 749 mmHg 74%
    13:00 +1°C° 0.8 mm 10 m/S 747 mmHg 79%
    14:00 +1°C° 0.8 mm 10 m/S 746 mmHg 84%
    15:00 +1°C° 0.8 mm 10 m/S 744 mmHg 88%
    16:00 +2°C° 1.1 mm 10 m/S 743 mmHg 90%
    17:00 +3°C° 1.1 mm 10 m/S 741 mmHg 91%
    18:00 +5°C° 1.1 mm 10 m/S 740 mmHg 92%
    19:00 +6°C° 1.1 mm 9 m/S 740 mmHg 91%
    20:00 +7°C° 1.1 mm 9 m/S 739 mmHg 90%
    21:00 +7°C° 1.1 mm 8 m/S 739 mmHg 89%
    22:00 +6°C° 0 mm 8 m/S 740 mmHg 87%
    23:00 +5°C° 0 mm 7 m/S 741 mmHg 85%

    übermorgen, 16 Dezember, Sonntag

    Zeit Temperatur Niederschläge Wind Luftdruck Luftfeuchtigkeit
    00:00 +4°C° 0 mm 7 m/S 741 mmHg 83%
    01:00 +4°C° 0 mm 6 m/S 742 mmHg 83%
    02:00 +3°C° 0 mm 6 m/S 743 mmHg 84%
    03:00 +2°C° 0 mm 5 m/S 744 mmHg 84%
    04:00 +3°C° 0 mm 4 m/S 745 mmHg 86%
    05:00 +3°C° 0 mm 4 m/S 745 mmHg 88%
    06:00 +3°C° 0 mm 4 m/S 745 mmHg 90%
    07:00 +3°C° 0 mm 3 m/S 746 mmHg 90%
    08:00 +3°C° 0 mm 3 m/S 746 mmHg 91%
    09:00 +3°C° 0 mm 3 m/S 747 mmHg 92%
    10:00 +4°C° 0 mm 3 m/S 747 mmHg 88%
    11:00 +5°C° 0 mm 4 m/S 747 mmHg 85%
    12:00 +6°C° 0 mm 4 m/S 747 mmHg 81%
    13:00 +7°C° 0 mm 3 m/S 747 mmHg 83%
    14:00 +5°C° 0 mm 3 m/S 747 mmHg 85%
    15:00 +6°C° 0 mm 2 m/S 747 mmHg 87%
    16:00 +6°C° 0 mm 2 m/S 747 mmHg 88%
    17:00 +5°C° 0 mm 2 m/S 747 mmHg 90%
    18:00 +5°C° 0 mm 2 m/S 748 mmHg 91%
    19:00 +5°C° 0.1 mm 2 m/S 748 mmHg 92%
    20:00 +5°C° 0.1 mm 2 m/S 748 mmHg 92%
    21:00 +5°C° 0.1 mm 2 m/S 748 mmHg 93%
    22:00 +4°C° 0 mm 2 m/S 749 mmHg 93%
    23:00 +4°C° 0 mm 2 m/S 749 mmHg 94%

    17 Dezember, Montag

    Zeit Temperatur Niederschläge Wind Luftdruck Luftfeuchtigkeit
    00:00 +4°C° 0 mm 2 m/S 749 mmHg 94%
    01:00 +4°C° 0 mm 2 m/S 749 mmHg 94%
    02:00 +4°C° 0 mm 2 m/S 750 mmHg 93%
    03:00 +2°C° 0 mm 3 m/S 750 mmHg 93%
    04:00 +2°C° 0 mm 3 m/S 751 mmHg 93%
    05:00 +2°C° 0 mm 3 m/S 751 mmHg 93%
    06:00 +2°C° 0 mm 3 m/S 751 mmHg 92%
    07:00 +2°C° 0 mm 3 m/S 752 mmHg 92%
    08:00 +2°C° 0 mm 3 m/S 753 mmHg 92%
    09:00 +2°C° 0 mm 3 m/S 753 mmHg 92%
    10:00 +4°C° 0 mm 3 m/S 753 mmHg 88%
    11:00 +5°C° 0 mm 3 m/S 753 mmHg 85%
    12:00 +6°C° 0 mm 4 m/S 754 mmHg 82%
    13:00 +6°C° 0 mm 4 m/S 754 mmHg 83%
    14:00 +6°C° 0 mm 4 m/S 753 mmHg 85%
    15:00 +6°C° 0 mm 4 m/S 753 mmHg 87%
    16:00 +6°C° 0 mm 4 m/S 753 mmHg 88%
    17:00 +6°C° 0 mm 5 m/S 753 mmHg 89%
    18:00 +5°C° 0 mm 6 m/S 753 mmHg 90%
    19:00 +5°C° 0 mm 6 m/S 753 mmHg 89%
    20:00 +6°C° 0 mm 7 m/S 753 mmHg 89%
    21:00 +6°C° 0 mm 7 m/S 752 mmHg 88%
    22:00 +7°C° 0.1 mm 8 m/S 752 mmHg 88%
    23:00 +7°C° 0.1 mm 8 m/S 752 mmHg 88%

    18 Dezember, Dienstag

    Zeit Temperatur Niederschläge Wind Luftdruck Luftfeuchtigkeit
    00:00 +9°C° 0.1 mm 8 m/S 751 mmHg 87%
    01:00 +9°C° 0.1 mm 8 m/S 751 mmHg 86%
    02:00 +9°C° 0.1 mm 8 m/S 750 mmHg 85%
    03:00 +7°C° 0.1 mm 8 m/S 750 mmHg 84%
    04:00 +7°C° 0 mm 9 m/S 749 mmHg 84%
    05:00 +7°C° 0 mm 9 m/S 749 mmHg 83%
    06:00 +7°C° 0 mm 9 m/S 748 mmHg 83%
    07:00 +7°C° 0 mm 10 m/S 747 mmHg 80%
    08:00 +7°C° 0 mm 10 m/S 747 mmHg 77%
    09:00 +7°C° 0 mm 10 m/S 746 mmHg 74%
    10:00 +7°C° 0.2 mm 11 m/S 745 mmHg 72%
    11:00 +7°C° 0.2 mm 11 m/S 744 mmHg 70%
    12:00 +7°C° 0.2 mm 12 m/S 743 mmHg 68%
    13:00 +7°C° 1.1 mm 11 m/S 742 mmHg 72%
    14:00 +6°C° 1.1 mm 11 m/S 741 mmHg 76%
    15:00 +6°C° 1.1 mm 11 m/S 741 mmHg 81%
    16:00 +6°C° 1.1 mm 9 m/S 741 mmHg 83%
    17:00 +6°C° 1.1 mm 7 m/S 741 mmHg 86%
    18:00 +7°C° 1.1 mm 6 m/S 741 mmHg 88%
    19:00 +7°C° 0.1 mm 6 m/S 741 mmHg 88%
    20:00 +6°C° 0.1 mm 5 m/S 742 mmHg 88%
    21:00 +6°C° 0.1 mm 5 m/S 742 mmHg 88%
    22:00 +6°C° 0 mm 5 m/S 743 mmHg 87%
    23:00 +6°C° 0 mm 5 m/S 743 mmHg 86%

    19 Dezember, Mittwoch

    Zeit Temperatur Niederschläge Wind Luftdruck Luftfeuchtigkeit
    00:00 +6°C° 0 mm 5 m/S 744 mmHg 85%
    01:00 +5°C° 0 mm 5 m/S 744 mmHg 86%
    02:00 +5°C° 0 mm 5 m/S 744 mmHg 86%
    03:00 +5°C° 0 mm 5 m/S 744 mmHg 87%
    04:00 +5°C° 0 mm 5 m/S 744 mmHg 88%
    05:00 +5°C° 0 mm 4 m/S 744 mmHg 88%
    06:00 +4°C° 0 mm 4 m/S 744 mmHg 89%
    07:00 +4°C° 0 mm 4 m/S 744 mmHg 88%
    08:00 +4°C° 0 mm 4 m/S 744 mmHg 87%
    09:00 +3°C° 0 mm 5 m/S 745 mmHg 86%
    10:00 +5°C° 0 mm 5 m/S 744 mmHg 82%
    11:00 +5°C° 0 mm 6 m/S 744 mmHg 78%
    12:00 +7°C° 0 mm 6 m/S 744 mmHg 74%
    13:00 +7°C° 0 mm 6 m/S 744 mmHg 75%
    14:00 +5°C° 0 mm 6 m/S 743 mmHg 76%
    15:00 +6°C° 0 mm 5 m/S 743 mmHg 76%
    16:00 +5°C° 0 mm 6 m/S 743 mmHg 77%
    17:00 +5°C° 0 mm 6 m/S 743 mmHg 78%
    18:00 +4°C° 0 mm 6 m/S 743 mmHg 79%
    19:00 +4°C° 0 mm 7 m/S 743 mmHg 80%
    20:00 +4°C° 0 mm 7 m/S 743 mmHg 81%
    21:00 +5°C° 0 mm 7 m/S 742 mmHg 82%
    22:00 +5°C° 0.1 mm 7 m/S 742 mmHg 83%
    23:00 +5°C° 0.1 mm 6 m/S 742 mmHg 84%
    Mehr zeigen